Hourly Data Report for September 06, 2012

HALIFAX STANFIELD INT'L A
NOVA SCOTIA

44°52'48.060" N
63°30'00.050" W
145.40 m
8202250
71395
YHZ

Download Data

Hourly Data (September 2012)
Hourly Data Report for September 6, 2012
TIME
LST
Temp Definition
°C
Dew Point Definition
°C
Rel Hum Definition
%
Precip. Amount Definition
mm

Wind Dir Definition
10's deg

Wind Spd Definition
km/h
Visibility Definition
km
Stn Press Definition
kPa
Hmdx Definition


Wind Chill Definition


Weather Definition


00:00 18.1 18.1 100   21 17 1.6 98.70     Fog
01:00 17.8 17.8 100   24 19 4.8 98.70     Fog
02:00 16.7 16.7 100   29 20 3.2 98.75     Drizzle, Fog
03:00 15.8 15.8 100   28 19 12.9 98.76     Cloudy
04:00 15.4 15.4 100   29 20 12.9 98.81     Cloudy
05:00 15.4 15.4 100   28 20 12.9 98.83     Cloudy
06:00 15.3 15.3 100   29 20 12.9 98.86     Cloudy
07:00 15.4 15.4 100   29 17 12.9 98.90     Drizzle
08:00 15.6 15.6 100   30 19 12.9 98.92     Drizzle
09:00 15.9 15.9 100   28 24 9.7 98.94     Drizzle, Fog
10:00 16.7 16.0 96   28 20 12.9 98.89     Cloudy
11:00 17.2 16.1 93   30 19 12.9 98.86     Cloudy
12:00 17.6 16.8 95   27 17 12.9 98.87     Drizzle
13:00 17.8 16.8 94   26 19 19.3 98.88     Cloudy
14:00 17.5 17.5 100   28 15 2.4 98.83     Drizzle, Fog
15:00 18.0 17.1 94   28 24 24.1 98.86     Cloudy
16:00 18.2 17.2 94   29 24 24.1 98.87     Cloudy
17:00 17.9 17.0 94   31 28 24.1 98.86     Cloudy
18:00 17.3 16.9 97   31 20 24.1 98.90     Cloudy
19:00 16.6 16.5 99   31 24 24.1 98.96     Cloudy
20:00 16.4 16.1 98   32 30 24.1 99.04     Cloudy
21:00 16.1 16.0 99   32 24 24.1 99.04     Cloudy
22:00 16.0 15.8 99   32 20 24.1 99.01     Cloudy
23:00 16.0 15.6 97   32 24 24.1 99.07     Cloudy

Notes on Data Quality.

Legend

  • E = Estimated
  • M = Missing
  • NA = Not Available*
  • [empty] = Indicates an unobserved value
Date modified: